Starlink 32600

operational
NORAD ID: 62178 Int'l Des: 2024-225 Owner: SPXS Country: US Constellation: starlink
LEOCIRCULAR

About Starlink 32600

Description loading...

Live Position

Loading 3D Globe...

Upcoming Passes

Altitude History

Altitude vs Time

uPlot chart will show altitude changes over time

Two-Line Element Set

1 62178U 24225R 26034.98604101 .00002491 00000-0 21648-3 0 9993
2 62178 69.9991 239.5408 0002531 272.4496 87.6373 14.98335496 65079
Epoch: Feb 3, 2026 • Age: 12 hours

Current Status

Altitude 594.3 km
Velocity 7.56 km/s
Sub-Earth Point -64.36°S, 127.75°W
Launch Date Nov 30, 2024
Age 1.1 years
Type internet

Technical Details

Classification Payload
Mass 730.00 kg
Dry Mass 700.00 kg
Total Mass 730.00 kg
Length 0.30 m
Diameter 4.10 m
Span 29.00 m
Shape Box + pan
Manufacturer SPXS
Bus Type Starlink V2M
Phase Status In Orbit
Owner/State SPXS/US

Large Constellations

Loading constellations...